Vertical_Velocity
-1 0 -0 -1 0 -4 -3 0 -1 5 3 -2 -1 -1 -0 -0 -0 1 2 2 -0 -1 -0 -0 -2 -2 -2 -1 -1 -2 -3 -3 -2 0 0 -2 -2 -1
-1 -2 -2 2 -3 1 -1 -1 -3 -3 0 1 -1 -1 -2 -1 -3 -2 -1 -1 -1 1 -0 -2 0 -1 -2 -2 -4 -2 0 -2 -3 -4 -2 -1 0 -0
-2 -1 -3 -1 -2 -4 -3 -2 -2 -2 -2 6 1 -1 -0 0 2 -1 -2 -1 -1 -2 -0 -0 -0 1 0 -1 -1 -2 -3 -2 1 -1 -2 -3 -3 -1
-1 -2 2 1 -0 -0 0 -1 -3 -3 -3 -2 0 -0 -2 -1 -3 0 2 -1 -3 -1 -0 -0 0 1 0 1 1 -2 -2 -1 -2 -0 0 -1 -4 -3
-0 -0 -1 -1 1 -2 -1 1 -1 -2 -5 -4 -1 -1 -2 -0 2 -2 2 1 1 -5 -5 -2 -3 -3 -0 0 -2 -0 -0 -2 -2 -0 0 0 -1 -4
-1 -1 1 1 -0 -1 0 0 1 -0 -0 -1 -3 -3 -0 1 -6 1 4 -0 6 3 -4 -6 -2 2 -1 0 -1 -2 -1 -1 -1 -1 -2 0 1 -1
0 0 1 -0 -1 1 -2 -1 -3 -3 -1 1 1 -1 -0 -1 3 1 -0 0 4 -1 5 -1 -3 -5 1 -3 2 1 -1 -0 -2 -2 0 -0 -1 -1
-2 -1 -1 0 -1 -0 0 -1 -1 -4 -3 -3 0 0 1 1 1 4 -2 -5 -1 1 7 6 1 1 1 -6 -2 -0 -0 -0 1 -1 -2 1 1 -1
1 1 -1 -2 0 0 0 -0 1 1 -1 -1 -5 -5 -2 -3 -2 -3 -1 -1 -6 -3 -8 5 -10 4 4 4 -8 -1 -3 0 -1 -1 -2 -4 2 3
0 1 2 1 -1 1 0 -2 -2 -2 -3 -3 -1 -2 -3 -3 -3 -6 -6 -5 -3 -3 -15 -5 -1 -3 -6 3 1 -5 -1 -4 -1 -1 0 -2 -2 0
-0 -0 1 0 1 0 -0 1 -1 -1 -2 1 4 3 -3 -4 -7 -3 -6 -2 -4 3 -3 -10 1 -3 0 2 2 -3 -5 -0 -3 -3 -0 -1 -2 -1
1 0 -0 -1 -0 2 3 1 -1 -2 1 2 1 3 -0 2 -1 -5 -4 -5 -7 -1 -2 -13 -5 -6 -7 6 5 3 -1 -4 -4 -0 -3 -3 -0 -1
1 0 1 -0 -1 -1 -2 -2 -0 -1 -3 -5 0 -4 -2 -6 -7 -5 -5 -7 -5 0 3 -13 -2 -8 -12 -14 -4 1 4 3 -0 -7 -2 -2 -3 -1
2 1 0 1 0 0 -0 -3 -2 -2 -3 1 -0 1 -1 -0 2 -4 -11 -3 -6 -8 4 -0 -10 -2 -6 -8 -8 -3 -5 2 2 5 -4 -4 -2 -3
2 4 3 2 1 1 -0 -1 -2 -3 -7 -5 -4 -2 -6 -6 -5 -6 -3 -5 -4 2 -7 -2 -7 -5 -1 1 -8 -8 -13 0 1 3 7 -3 -4 1
2 0 3 1 2 1 0 -1 -1 -2 -2 -2 -3 0 -2 -2 -1 -4 -7 -4 -9 2 3 -1 -1 -7 -4 -3 -2 3 4 -16 -6 1 2 4 -1 -3
1 2 4 3 5 2 -2 -1 1 -1 -1 -3 -3 -3 -3 -6 -2 -3 -8 -1 -13 -7 -2 7 5 -4 -5 -3 -10 1 1 -5 -0 -9 -2 2 5 3
3 4 3 -1 -0 5 1 1 -0 -3 -2 -4 -2 -4 -10 -5 -8 1 -5 -4 -10 -0 -7 -0 -1 -5 -1 -7 6 -1 -0 -2 4 -3 -1 -3 2 6
2 4 4 3 4 -1 -0 -0 2 -2 -4 -3 -5 -8 -6 -4 -4 -5 -3 -4 -4 -4 1 -1 -1 -0 -7 -19 19 6 -11 6 6 -1 -4 -1 -0 6
1 2 1 1 0 2 -1 -4 -2 -2 0 -6 -4 -1 -1 -9 -2 -2 -2 -5 -4 -1 -9 1 3 2 -3 -3 -19 -2 14 -3 -1 -7 -2 -1 0 8
2 4 0 1 -1 -2 -1 -0 -2 4 1 -8 -1 -0 0 -7 -6 -4 -4 1 -5 -2 -10 -8 2 5 -1 -1 -11 -8 2 11 0 -6 2 -2 0 3
2 0 3 -8 2 1 -2 -3 -7 -10 0 -2 -1 -3 -1 -2 -4 -2 -2 -6 0 -2 -5 -4 2 2 1 2 -4 -10 -5 5 9 -0 -0 1 3 -2
2 -8 1 -0 2 4 -4 -0 -7 -5 1 -3 -4 -5 -3 -4 1 -1 -2 -0 -1 -3 2 -2 3 6 2 1 -2 -6 -3 2 1 1 6 3 1 1
Height
3114 3113 3112 3111 3110 3109 3107 3107 3106 3106 3103 3100 3099 3097 3096 3094 3092 3091 3089 3087 3086 3085 3083 3082 3082 3081 3081 3078 3077 3076 3075 3073 3072 3070 3069 3067 3066 3065
3109 3108 3107 3106 3106 3105 3104 3102 3101 3100 3100 3097 3094 3093 3091 3090 3088 3087 3085 3083 3080 3078 3077 3075 3075 3074 3074 3073 3072 3071 3069 3068 3067 3066 3064 3063 3062 3061
3104 3103 3102 3102 3101 3100 3099 3098 3097 3095 3094 3093 3090 3087 3086 3085 3083 3082 3080 3078 3076 3073 3072 3070 3069 3067 3066 3066 3065 3064 3063 3063 3061 3060 3059 3058 3057 3056
3098 3098 3097 3096 3095 3094 3093 3092 3091 3089 3088 3087 3085 3083 3080 3079 3077 3076 3074 3073 3070 3067 3065 3063 3063 3061 3059 3058 3057 3057 3056 3055 3055 3054 3053 3051 3050 3049
3092 3092 3091 3090 3089 3088 3087 3086 3085 3083 3082 3081 3079 3078 3076 3075 3073 3070 3069 3068 3065 3063 3060 3058 3056 3054 3053 3052 3050 3048 3048 3047 3047 3046 3046 3045 3044 3042
3086 3086 3085 3085 3084 3083 3081 3080 3079 3077 3076 3074 3072 3071 3070 3067 3065 3064 3062 3059 3058 3056 3054 3053 3049 3047 3044 3044 3043 3042 3040 3039 3038 3038 3037 3037 3036 3036
3081 3080 3079 3079 3078 3076 3075 3073 3072 3071 3070 3068 3066 3064 3062 3061 3059 3056 3054 3053 3051 3048 3048 3046 3044 3040 3037 3036 3034 3034 3033 3031 3030 3029 3029 3028 3028 3028
3074 3074 3073 3072 3071 3070 3068 3067 3065 3064 3062 3061 3059 3057 3055 3052 3051 3048 3045 3044 3043 3040 3037 3039 3033 3033 3031 3028 3026 3025 3023 3023 3021 3020 3019 3019 3019 3019
3066 3066 3066 3065 3064 3063 3062 3060 3059 3057 3055 3054 3052 3050 3048 3045 3043 3041 3037 3034 3033 3031 3027 3029 3024 3023 3021 3020 3018 3016 3014 3013 3012 3010 3009 3010 3009 3009
3059 3059 3058 3058 3057 3056 3055 3053 3052 3051 3049 3047 3045 3043 3040 3038 3035 3032 3028 3026 3024 3023 3016 3012 3016 3013 3012 3012 3008 3006 3005 3003 3002 3001 3000 2999 3000 2999
3052 3052 3051 3051 3050 3049 3049 3047 3045 3044 3043 3041 3039 3036 3033 3029 3026 3025 3021 3017 3013 3014 3012 3003 3003 3001 3001 3002 2999 2996 2996 2995 2993 2992 2990 2989 2989 2990
3045 3044 3044 3043 3043 3042 3041 3040 3039 3038 3036 3034 3032 3030 3026 3024 3020 3015 3011 3008 3004 2999 3001 2995 2995 2988 2983 2990 2989 2988 2987 2985 2982 2982 2981 2979 2979 2979
3036 3036 3036 3034 3035 3034 3033 3033 3032 3031 3028 3026 3024 3022 3019 3016 3012 3010 3005 2999 2995 2990 2988 2981 2980 2980 2975 2966 2976 2975 2973 2974 2971 2970 2971 2971 2969 2969
3028 3027 3027 3027 3027 3026 3025 3024 3023 3022 3021 3019 3016 3014 3011 3008 3004 2998 2994 2990 2985 2980 2976 2973 2967 2962 2958 2959 2956 2961 2962 2959 2958 2958 2958 2958 2959 2958
3019 3019 3019 3019 3019 3018 3017 3017 3015 3013 3011 3009 3006 3002 2998 2995 2991 2987 2982 2979 2973 2970 2966 2961 2956 2953 2948 2942 2939 2942 2943 2947 2944 2942 2945 2945 2945 2946
3009 3010 3012 3012 3011 3011 3010 3009 3007 3004 3002 2998 2995 2991 2986 2982 2977 2972 2968 2964 2960 2958 2955 2951 2946 2942 2938 2935 2930 2926 2929 2926 2931 2928 2928 2929 2930 2932
3000 3003 3004 3004 3003 3002 3002 3000 2998 2996 2992 2988 2984 2979 2974 2969 2964 2958 2955 2952 2947 2944 2942 2941 2937 2932 2929 2925 2921 2920 2916 2915 2915 2916 2914 2913 2916 2918
2991 2994 2995 2996 2996 2994 2992 2991 2988 2985 2981 2977 2972 2967 2962 2958 2953 2948 2944 2941 2936 2934 2929 2927 2923 2920 2918 2918 2913 2909 2908 2904 2903 2903 2902 2900 2901 2905
2983 2985 2986 2987 2986 2985 2983 2980 2977 2973 2969 2965 2960 2955 2950 2948 2942 2938 2934 2930 2927 2923 2920 2916 2912 2908 2905 2902 2906 2901 2897 2896 2893 2891 2891 2890 2889 2892
2974 2976 2976 2977 2976 2974 2971 2968 2964 2960 2956 2953 2948 2943 2938 2935 2932 2928 2925 2921 2917 2914 2910 2907 2903 2899 2895 2892 2888 2893 2890 2886 2883 2882 2882 2880 2879 2881
2966 2966 2967 2967 2965 2964 2961 2957 2954 2949 2943 2940 2936 2932 2927 2923 2921 2917 2915 2911 2907 2903 2898 2896 2895 2892 2887 2883 2879 2880 2881 2878 2875 2872 2871 2870 2869 2869
2958 2959 2958 2958 2955 2952 2948 2945 2942 2940 2934 2929 2925 2922 2918 2913 2910 2907 2904 2900 2897 2893 2889 2886 2884 2881 2877 2874 2871 2869 2869 2869 2867 2864 2863 2862 2862 2862
2949 2950 2949 2946 2944 2941 2938 2935 2931 2928 2923 2919 2915 2911 2907 2903 2900 2896 2893 2890 2886 2883 2880 2876 2874 2871 2868 2864 2861 2860 2859 2858 2857 2856 2856 2854 2854 2856